Regional Weather Roundup
Issued by NWS

Home | Current Version | Previous Version | Graphics & Text | Print | Product List | Glossary On
Versions: 1 2 3 4 5 6 7 8 9 10 11 12 13 14 15 16 17 18 19 20 21 22 23 24 25 26 27 28 29 30 31 32 33 34 35 36 37 38 39 40 41 42 43 44 45 46 47 48 49 50
000
ASUS43 KMPX 131510
RWRMN
WEATHER ROUNDUP FOR MINNESOTA
NATIONAL WEATHER SERVICE TWIN CITIES/CHANHASSEN MN
1000 AM CDT SUN JUL 13 2014


NOTE: "FAIR" INDICATES FEW OR NO CLOUDS BELOW 12,000 FEET WITH NO
SIGNIFICANT WEATHER AND/OR OBSTRUCTIONS TO VISIBILITY. N/A MEANS
CURRENT SKY AND/OR WEATHER CONDITIONS ARE NOT AVAILABLE.

MNZ060>063-068>070-131600-
   Twin Cities Metro

CITY           SKY/WX    TMP DP  RH WIND       PRES   REMARKS
TWIN CITIES    SUNNY     69  50  50 CALM      29.98S
ST PAUL        SUNNY     69  50  50 NW5       29.98S
CRYSTAL        SUNNY     69  50  50 VRB5      29.97F
BLAINE         SUNNY     68  54  60 W5        29.98S
LAKEVILLE      SUNNY     66  55  68 NW7       29.98S
EDEN PRAIRIE   SUNNY     69  52  54 CALM      29.98S
SOUTH ST PAUL  SUNNY     69  48  47 CALM      29.97S
LAKE ELMO      FAIR      66  52  59 W5        29.99S
$$
MNZ001>005-007-008-013>017-022>024-027-028-131600-
   Northwest Minnesota

CITY           SKY/WX    TMP DP  RH WIND       PRES   REMARKS
BEMIDJI        SUNNY     63  52  68 W14       29.93S
HALLOCK        SUNNY     64  50  59 NW15      29.91S
ROSEAU         SUNNY     63  52  67 W17G28    29.87F
WARROAD        SUNNY     63  52  67 W16G25    29.86F
THIEF RVR FALL SUNNY     61  50  67 W10G17    29.93F
CROOKSTON      SUNNY     63  52  67 NW13      29.96S
FOSSTON        SUNNY     61  52  72 W10       29.95F
DETROIT LAKES  SUNNY     64  50  59 NW12      29.99S
MOORHEAD       SUNNY     70  46  43 NW12      29.99S
PARK RAPIDS    SUNNY     65  53  65 W13       29.96S
$$
MNZ006-009>011-018-025>026-131600-
   North Central Minnesota

CITY           SKY/WX    TMP DP  RH WIND       PRES   REMARKS
BAUDETTE       MOSUNNY   62  47  57 W12G23    29.86S
FLAG ISLAND    PTSUNNY   61  48  63 W18G28    29.81S
INTL FALLS     MOSUNNY   63  49  60 W17G26    29.83F
WASKISH        MOSUNNY   63  54  72 W16G23    29.89S
BIG FORK       MOSUNNY   63  54  72 W12G17    29.90S
LONGVILLE      SUNNY     63  54  72 W10G18    29.94R
GRAND RAPIDS   MOSUNNY   61  52  72 SW9       29.92S
CRANE LAKE     PTSUNNY   57  50  77 W5        29.86F
ORR            MOSUNNY   59  48  67 SW8       29.84F
COOK           MOSUNNY   59  50  72 SW10      29.88F
$$
MNZ012-019>021-037-131600-
   Northeast Minnesota

CITY           SKY/WX    TMP DP  RH WIND       PRES   REMARKS
DULUTH         MOSUNNY   63  47  55 W16       29.92S
ELY            CLOUDY    57  48  72 W9        29.88R
HIBBING        CLOUDY    62  51  67 W7        29.91R
EVELETH        CLOUDY    59  48  67 W9G22     29.91S
DULUTH HARBOR  MOSUNNY   66  52  59 SW13      29.92S
TWO HARBORS    SUNNY     64  48  55 W10       29.88S
SILVER BAY     SUNNY     64  52  63 SW7       29.86S
GRAND MARAIS     N/A     49  44  83 W8        29.83F
G MARAIS ARPRT MOSUNNY   61  43  51 W9G22     29.84S
$$
MNZ029>031-032-039>041-046>048-054>057-064-131600-
   West Central Minnesota

CITY           SKY/WX    TMP DP  RH WIND       PRES   REMARKS
FERGUS FALLS   SUNNY     64  52  63 W9        30.00F
WHEATON        SUNNY     66  55  68 W7        30.03F
MORRIS         SUNNY     68  57  68 W9        30.01F
ALEXANDRIA     SUNNY     66  54  65 W14       30.02S
ELBOW LAKE     FAIR      66  55  68 W10       30.01F
WADENA         SUNNY     64  52  63 W10       29.97F
GLENWOOD       SUNNY     66  55  68 W8        30.02S
APPLETON       SUNNY     72  55  56 W9        30.02S
BENSON         SUNNY     66  57  72 NW7       30.02F
ORTONVILLE     SUNNY     70  54  56 W5        30.02F
MADISON        SUNNY     72  57  60 W8        30.02F
WILLMAR        FAIR      66  57  72 W10       30.03S
$$
MNZ033>034-036-042>043-049>051-058-059-131600-
   Central Minnesota

CITY           SKY/WX    TMP DP  RH WIND       PRES   REMARKS
ST CLOUD       SUNNY     69  49  48 W8        29.98F
SAUK CENTRE    FAIR      67  51  56 W9        30.00F
PAYNESVILLE    SUNNY     65  50  59 SW7       30.01F HAZE
AITKIN         MOSUNNY   66  54  63 SW8       29.94S
PINE RIVER     SUNNY     63  54  72 W9        29.98F
BRAINERD       MOSUNNY   70  49  47 SW12      29.97S
STAPLES        SUNNY     64  52  63 W14       29.97F
LONG PRAIRIE   FAIR      64  52  63 SW10      30.00S
LITTLE FALLS   SUNNY     64  46  52 SW6       29.98F
LITCHFIELD     SUNNY     68  54  60 W5        30.01S
BUFFALO        SUNNY     66  50  56 W7        30.00F
MAPLE LAKE     SUNNY     67  55  64 SW5       30.00F
$$
MNZ037-044-045-052-053-131600-
   East Central Minnesota

CITY           SKY/WX    TMP DP  RH WIND       PRES   REMARKS
PRINCETON      SUNNY     66  54  63 SW7       29.98F
MORA           SUNNY     64  52  63 W7        29.98F
CAMBRIDGE      SUNNY     66  54  63 W8        29.96S
RUSH CITY      SUNNY     65  52  62 SW5       29.97F
MOOSE LAKE     SUNNY     63  50  63 SW6       29.93S
HINCKLEY       FAIR      64  50  59 W6        29.96S
CLOQUET        PTSUNNY   63  48  59 W7        29.93S
MCGREGOR       SUNNY     63  50  63 SW8       29.95S
$$
MNZ071>073-080-081-089-090-097-098-131600-
   Southwest Minnesota

CITY           SKY/WX    TMP DP  RH WIND       PRES   REMARKS
MONTEVIDEO     SUNNY     72  57  60 W7        30.03F
GRANITE FALLS  SUNNY     68  55  62 W9        30.04F
CANBY          SUNNY     71  56  59 CALM      30.04F
MARSHALL       SUNNY     70  55  60 NW6       30.03S
REDWOOD FALLS  SUNNY     69  57  65 NW12      30.01F
OLIVIA         SUNNY     70  59  68 NW9       30.01F
PIPESTONE      SUNNY     72  52  49 N6        30.06S
WINDOM         SUNNY     73  55  53 W7        30.04S
WORTHINGTON    SUNNY     72  61  68 NW9       30.06S
JACKSON        SUNNY     72  55  56 NW8       30.05R
TRACY          SUNNY     70  57  63 NW6       30.04S
SLAYTON        SUNNY     70  50  49 CALM      30.06S
$$
MNZ065>067-074>077-082>085-091>093-131600-
   South Central Minnesota

CITY           SKY/WX    TMP DP  RH WIND       PRES   REMARKS
MANKATO        SUNNY     68  55  64 NW13      30.01R
NEW ULM        SUNNY     70  59  68 NW12      30.01S
ST JAMES       SUNNY     72  59  64 NW8       30.03S
FAIRMONT       SUNNY     73  59  60 N8        30.02S
GLENCOE        SUNNY     68  49  51 CALM      30.00S
FARIBAULT      MOSUNNY   73  57  56 NW5       30.00R
OWATONNA       SUNNY     70  59  68 NW9       29.99S
WASECA         SUNNY     72  59  64 W8        30.01S
ALBERT LEA     SUNNY     72  63  73 W7        30.00S
$$
MNZ078>079-086>088-094>096-131600-
   Southeast Minnesota

CITY           SKY/WX    TMP DP  RH WIND       PRES   REMARKS
ROCHESTER      MOSUNNY   71  62  73 NW7       30.00S
RED WING       SUNNY     70  52  52 NW6       29.96S
STANTON        SUNNY     69  54  57 N7        29.98R
DODGE CENTER   SUNNY     70  61  73 NW8       29.99S
WINONA         MOSUNNY   72  61  68 NW9       29.95S
AUSTIN         SUNNY     72  63  73 NW9       29.99S
PRESTON        PTSUNNY   70  65  84 NW10      29.99S
$$
ABBREVIATIONS USED IN REMARKS
   TC - TEMPERATURES IN CELSIUS
  WCI - WIND CHILL INDEX
   HX - HEAT INDEX
  VSB - VISIBILITY
$$



USA.gov is the U.S. government's official web portal to all federal, state and local government web resources and services.